{"data":{"norad_id":60381,"epoch":"2026-05-25T02:43:37.021152Z","epoch_age_seconds":58423,"freshness":"FRESH","line1":"1 60381U 24140C   26145.11362293  .00000084  00000+0  11109-3 0  9990","line2":"2 60381  88.9693 282.2615 0015929  90.2262 270.0715 13.51006783 89379","mean_motion":13.51006783,"eccentricity":0.0015929,"inclination_deg":88.9693,"raan_deg":282.2615,"arg_perigee_deg":90.2262,"mean_anomaly_deg":270.0715,"bstar":0.00011109,"rev_number":8937,"period_min":106.58717766038,"perigee_km":1056.6948217323,"apogee_km":1080.4184983945,"semimajor_km":7446.6936600634,"source":"CELESTRAK","updated_at":"2026-05-25T13:38:02.038549Z"}}